Weather History for Monroe, LA

Change the Weather History Date:

Friday, January 4, 2013

  Actual Average Record
Temperature  
Mean Temperature 44 °F 46 °F  
Max Temperature 52 °F 57 °F 80 °F (1997)
Min Temperature 36 °F 35 °F 17 °F (2002)
Degree Days  
Heating Degree Days 21 19  
Month to date heating degree days 88 76  
Since 1 July heating degree days 893 978  
Cooling Degree Days 0 0  
Month to date cooling degree days 0 0  
Year to date cooling degree days 0 0  
Moisture  
Dew Point 33 °F    
Average Humidity 65    
Maximum Humidity 89    
Minimum Humidity 41    
Precipitation  
Precipitation T in 0.17 in 3.10 in (1934)
Month to date precipitation 1.31 0.65  
Year to date precipitation 1.31 0.65  
Snow  
Snow 0.00 in - - ()
Month to date snowfall 0.0  
Since 1 July snowfall 0.0  
Snow Depth 0.00 in    
Sea Level Pressure  
Sea Level Pressure 30.45 in    
Wind  
Wind Speed 3 mph (NNE)    
Max Wind Speed 13 mph    
Max Gust Speed 15 mph    
Visibility 10 miles    
Events      
T = Trace of Precipitation, MM = Missing Value Source: NWS Daily Summary

Daily Weather History Graph

Daily Weather History Graph

Search for Another Location

Airport:

Trip Planner

Search our weather history database for the weather conditions in past years. The results will help you decide how hot, cold, wet, or windy it might be!

Date:

Astronomy

Jan. 04, 2013 Rise Set
Actual Time 7:10 AM CST 5:16 PM CST
Civil Twilight 6:43 AM CST 5:43 PM CST
Nautical Twilight 6:12 AM CST 6:13 PM CST
Astronomical Twilight 5:43 AM CST 6:43 PM CST
Moon No Moon Rise 11:19 AM CST (1/4)
Length of Visible Light 10h 59m
Length of Day
10h 05m
Waning Gibbous, 55% of the Moon is Illuminated
Jan 4
Waning Gibbous
Jan 4
Last Quarter
Jan 11
New
Jan 18
First Quarter
Jan 26
Full

Hourly Weather History & Observations

Time (CST) Temp. Windchill Dew Point Humidity Pressure Visibility Wind Dir Wind Speed Gust Speed Precip Events Conditions
12:53 AM 37.9 °F - 33.1 °F 83% 30.44 in 10.0 mi Calm Calm - N/A   Overcast
1:53 AM 39.0 °F - 34.0 °F 82% 30.45 in 10.0 mi Calm Calm - N/A   Overcast
2:53 AM 39.9 °F 37.8 °F 33.1 °F 77% 30.45 in 10.0 mi NNE 3.5 mph - N/A   Overcast
3:53 AM 37.9 °F 34.4 °F 33.1 °F 83% 30.44 in 10.0 mi NNE 4.6 mph - N/A   Mostly Cloudy
4:53 AM 36.0 °F 33.3 °F 32.0 °F 86% 30.44 in 9.0 mi NNE 3.5 mph - N/A   Mostly Cloudy
5:53 AM 39.0 °F - 33.1 °F 79% 30.47 in 10.0 mi Calm Calm - N/A   Overcast
6:53 AM 37.9 °F 34.4 °F 33.1 °F 83% 30.49 in 10.0 mi North 4.6 mph - N/A   Overcast
7:53 AM 39.0 °F - 33.1 °F 79% 30.51 in 9.0 mi Calm Calm - N/A   Overcast
8:53 AM 41.0 °F - 33.1 °F 73% 30.52 in 10.0 mi Calm Calm - N/A   Partly Cloudy
9:53 AM 45.0 °F 43.5 °F 30.0 °F 56% 30.53 in 10.0 mi NNE 3.5 mph - N/A   Clear
10:53 AM 46.0 °F 43.9 °F 30.9 °F 56% 30.53 in 10.0 mi ENE 4.6 mph - N/A   Mostly Cloudy
11:53 AM 46.9 °F - 32.0 °F 56% 30.49 in 10.0 mi Variable 3.5 mph - 0.00 in   Scattered Clouds
12:53 PM 48.0 °F - 32.0 °F 54% 30.46 in 10.0 mi Variable 3.5 mph - N/A   Partly Cloudy
1:53 PM 51.1 °F - 30.0 °F 44% 30.43 in 10.0 mi NNW 10.4 mph - N/A   Mostly Cloudy
2:53 PM 51.1 °F - 28.9 °F 43% 30.42 in 10.0 mi NNE 4.6 mph - N/A   Overcast
3:53 PM 50.0 °F - 30.0 °F 46% 30.43 in 10.0 mi North 5.8 mph - N/A   Overcast
4:53 PM 48.9 °F - 30.0 °F 48% 30.43 in 10.0 mi Calm Calm - N/A   Overcast
5:53 PM 48.0 °F - 34.0 °F 58% 30.42 in 10.0 mi East 3.5 mph - N/A   Overcast
6:53 PM 48.0 °F - 34.0 °F 58% 30.44 in 10.0 mi Calm Calm - N/A   Overcast
7:53 PM 46.9 °F - 35.1 °F 63% 30.43 in 10.0 mi Calm Calm - N/A   Overcast
8:53 PM 45.0 °F - 36.0 °F 71% 30.43 in 10.0 mi Calm Calm - N/A   Overcast
9:53 PM 42.1 °F - 35.1 °F 76% 30.42 in 10.0 mi Calm Calm - N/A   Clear
10:53 PM 39.9 °F - 35.1 °F 83% 30.42 in 10.0 mi Calm Calm - N/A   Clear
11:53 PM 37.9 °F 34.4 °F 34.0 °F 86% 30.40 in 10.0 mi NE 4.6 mph - N/A   Partly Cloudy